Flag for Germany Weather past 2 weeks in Siegen, North Rhine-Westphalia, Germany

Now
32 °F

Ice fog.


Feels Like: 26 °F
Forecast: 34 / 39 °F
Wind: 7 mph from West

Location: Hessen

Current Time: Jan 25, 2015 at 5:48:26 PM

Latest Report: Jan 25, 2015 at 4:20 PM


Visibility: 0 mi

Pressure: 30.30 "Hg

Humidity: 100%

Dew point: 32 °F

Location of SiegenLocation

Historic Weather in Siegen — Graph

°F

Siegen temperature yesterday

Maximum temperature yesterday: 28 °F (at 2:20 PM)
Minimum temperature yesterday: 25 °F (at 7:50 AM)
Average temperature yesterday: 27 °F

Past Weeks' High & Low Weather Summary

 TemperatureHumidityPressure
High48 °F (Jan 10, 4:20 PM)100% (Jan 10, 4:20 PM)30.33 "Hg (Jan 10, 4:20 PM)
Low21 °F (Jan 21, 7:50 AM)66% (Jan 13, 12:50 PM)29.53 "Hg (Jan 15, 2:50 PM)
Average32 °F93%29.88 "Hg
* Reported Jan 10 4:20 PM — Jan 25 4:20 PM, Siegen, Weather by CustomWeather, © 2014

Note: Actual official high and low records may vary slightly from our data, if they occured in-between our weather recording intervals... More about our weather records

Advertising

Siegen weather history for previous 24 hours

 ConditionsComfort  
Time TempWeatherWind HumidityBarometerVisibility
4:20 PM
Jan 25
32 °FIce fog.7 mph100%30.30 "Hg0 mi
3:50 PM32 °FIce fog.9 mph100%30.30 "Hg0 mi
3:20 PM32 °FChilly.12 mph100%30.30 "Hg0 mi
2:50 PM32 °FChilly.6 mph100%30.30 "Hg0 mi
2:20 PM30 °FIce fog.6 mph100%30.30 "Hg0 mi
1:50 PM30 °FIce fog.7 mph100%30.30 "Hg0 mi
1:20 PM30 °FChilly.8 mph100%30.30 "Hg0 mi
12:50 PM30 °FIce fog.9 mph100%30.30 "Hg0 mi
12:20 PM30 °FIce fog.10 mph100%30.30 "Hg0 mi
11:50 AM30 °FIce fog.9 mph100%30.33 "Hg0 mi
11:20 AM30 °FIce fog.9 mph100%30.33 "Hg0 mi
10:50 AM30 °FIce fog.10 mph100%30.33 "Hg0 mi
10:20 AM30 °FIce fog.10 mph100%30.33 "Hg0 mi
9:50 AM30 °FIce fog.14 mph100%30.30 "Hg0 mi
9:20 AM30 °FIce fog.12 mph100%30.30 "Hg0 mi
8:50 AM30 °FIce fog.13 mph100%30.30 "Hg0 mi
8:20 AM30 °FIce fog.12 mph100%30.30 "Hg0 mi
7:50 AM30 °FIce fog.8 mph100%30.30 "Hg0 mi
5:20 PM
Jan 24
28 °FLight snow. Ice fog.12 mph100%30.07 "Hg0 mi
Weather by CustomWeather, © 2014

See weather overviewHow to use our weather pages